User: anonymous   Login
Location: Unspecified
(0.0000°N, 0.0000°E)
Time: 11:21:28
(UTC+00:00)
Language:

CORVUS BC2 - Orbit

View from above orbital plane
View from above orbital plane
View from above satellite
View from above satellite

Ground track
Ground track

The orbit data is extracted from the following two-line orbital elements,

1 42846U 17042X   19018.77526839  .00000042  00000-0  94618-5 0  9993
2 42846  97.5818 278.6378 0009208 189.2688 170.8362 14.91910785 82514
Epoch (UTC): 18 January 2019 18:36:23
Eccentricity: 0.0009208
inclination: 97.5818°
perigee height: 585 km
apogee height: 598 km
right ascension of ascending node: 278.6378°
argument of perigee: 189.2688°
revolutions per day: 14.91910785
mean anomaly at epoch: 170.8362°
orbit number at epoch: 8251

The dashed part of the orbit path shows where the satellite is in the earth's shadow,  

DLR